sat.trackr.live / text

‹ back to catalog

STARLINK-5284

NORAD 55297 · 2023-010AE

PAYLOAD ACTIVE UNKNOWN

§ Identity

Operator
Country
US
Launch date
2023-01-19
Launch site
AFWTR
Launch vehicle
Mass (kg)
RCS (m²)

Purposes: comms

External: N2YO · Heavens-Above · Gunter

§ Orbital elements

Epoch: 2026-09-20T23:33:34.772544Z

Period
96.11 min
Inclination
69.9981°
Eccentricity
0.0003380
Mean motion
14.98330320 rev/d
Perigee alt
569.7 km
Apogee alt
574.4 km
Semi-major
6,950.2 km
B*
5.4289e-5
RAAN
251.9865°
Arg perigee
269.2181°
Mean anomaly
90.8591°
Rev number
20,252

§ Raw data

STARLINK-52841 55297U 23010AE  26263.98165246  .00000555  00000+0  54289-4 0  99902 55297  69.9981 251.9865 0003380 269.2181  90.8591 14.98330320202527

JSON: /api/v1/satellites/55297 · /tle

For live sub-satellite position, see the globe view (requires WebGL).

§ Visibility from observer

Set your observer location to see the next 7 days of passes ≥ 10°. The values pass through the URL so the page stays shareable.

No JS? Fill the form by hand. The geolocation button needs JavaScript.